EST,Max TemperatureF,Mean TemperatureF,Min TemperatureF,Max Dew PointF,MeanDew PointF,Min DewpointF,Max Humidity, Mean Humidity, Min Humidity, Max Sea Level PressureIn, Mean Sea Level PressureIn, Min Sea Level PressureIn, Max VisibilityMiles, Mean VisibilityMiles, Min VisibilityMiles, Max Wind SpeedMPH, Mean Wind SpeedMPH, Max Gust SpeedMPH,PrecipitationIn, CloudCover, Events, WindDirDegrees
2014-1-1,54,43,32,43,36,31,92,67,41,30.45,30.33,30.18,10,10,10,7,1,9,0.01,3,Rain,88
2014-1-2,53,50,46,52,48,42,96,91,86,30.14,29.81,29.54,10,7,2,16,3,23,0.83,8,Rain,289
2014-1-3,52,40,28,48,24,11,83,60,37,30.49,30.07,29.58,10,10,9,25,15,37,T,3,Rain,336
2014-1-4,48,37,25,39,25,13,82,66,50,30.55,30.45,30.29,10,10,10,10,5,14,0.00,4,,51
2014-1-5,68,54,40,63,58,38,93,86,78,30.26,30.05,29.86,10,8,2,13,4,17,0.45,6,Rain,162
2014-1-6,69,51,32,64,52,10,100,70,40,30.11,29.78,29.68,10,9,4,23,13,39,0.10,6,Rain,239
2014-1-7,32,25,17,9,1,-2,62,46,29,30.56,30.42,30.15,10,10,10,21,9,28,0.00,0,,301
2014-1-8,43,30,17,20,12,4,80,50,19,30.66,30.58,30.53,10,10,10,7,0,9,0.00,0,,170
2014-1-9,57,41,24,35,27,18,88,62,36,30.60,30.54,30.49,10,10,9,9,3,12,0.00,3,,54
2014-1-10,72,56,39,66,54,35,93,73,53,30.46,30.26,30.12,10,9,2,20,5,28,0.15,7,Rain,134
2014-1-11,73,66,58,70,64,55,93,89,84,30.10,29.86,29.66,10,8,2,31,11,41,0.83,7,Rain,205
2014-1-12,60,48,36,55,41,32,92,64,36,30.22,29.97,29.71,10,10,10,21,7,30,0.01,2,Rain,284
2014-1-13,67,50,33,49,41,31,96,68,40,30.25,30.15,30.01,10,10,10,16,4,22,T,1,Rain,181
2014-1-14,64,53,41,61,55,39,100,92,84,30.01,29.87,29.75,10,6,0,24,6,32,0.72,6,Fog-Rain,227
2014-1-15,61,49,37,49,41,36,100,72,44,30.01,29.95,29.87,10,5,0,7,1,8,0.00,1,Fog,250
2014-1-16,49,40,30,43,36,27,93,82,70,30.09,29.96,29.87,10,8,1,17,6,21,0.00,6,,339
2014-1-17,58,44,29,44,32,23,92,60,28,30.11,30.02,29.87,10,10,6,17,7,23,0.00,0,,206
2014-1-18,53,39,25,46,28,16,83,58,33,30.10,29.97,29.83,10,10,4,22,8,28,0.12,3,Rain-Thunderstorm,264
2014-1-19,56,41,26,34,26,19,81,57,32,30.08,30.00,29.92,10,10,10,17,7,24,T,2,Rain,222
2014-1-20,65,52,38,38,32,28,71,49,26,29.96,29.90,29.81,10,10,10,15,7,18,0.00,0,,222
2014-1-21,68,49,30,41,33,26,83,55,26,29.85,29.67,29.49,10,8,2,25,10,36,0.06,4,Rain-Snow,273
2014-1-22,31,25,19,25,18,15,85,69,53,30.16,29.97,29.75,10,10,3,22,9,32,T,4,Snow,327
2014-1-23,41,30,18,21,15,10,84,57,30,30.39,30.26,30.14,10,10,10,16,3,22,0.00,0,,351
2014-1-24,30,21,12,7,2,-2,76,52,27,30.60,30.47,30.36,10,10,10,21,9,29,0.00,1,,345
2014-1-25,48,31,14,21,13,2,67,46,24,30.32,29.95,29.70,10,10,10,25,9,33,0.00,3,,220
2014-1-26,56,42,27,33,24,18,69,48,26,30.04,29.95,29.86,10,10,10,18,6,23,0.00,0,,207
2014-1-27,69,55,40,41,35,26,71,49,26,30.06,29.90,29.82,10,10,7,28,9,35,0.00,1,,215
2014-1-28,40,32,23,24,18,13,88,67,45,30.31,30.20,30.09,10,6,2,24,14,30,0.40,7,Rain,13
2014-1-29,26,23,19,19,15,8,88,67,46,30.40,30.22,30.12,10,6,1,18,10,28,0.26,5,Rain-Snow,348
2014-1-30,36,29,22,31,20,11,75,66,57,30.43,30.34,30.23,10,10,8,10,5,14,T,5,Rain,22
2014-1-31,56,42,27,31,29,25,92,62,32,30.25,30.21,30.16,10,10,8,9,1,13,0.03,3,Rain,353